(25168) = 1997 LR9 = 1998 SC65 = 1998 UP43 = 2000 CE64

Discovered at La Silla on 1998-09-20 by E. W. Elst.

Orbit

Orbit type: Main Belt

Note: WebGL enabled browser required.

epoch2024-03-31.0
epoch JD2460400.5
perihelion date2022-07-13.51892
perihelion JD2459774.01892
argument of perihelion (°)205.51298
ascending node (°)117.87711
inclination (°)2.74709
eccentricity0.1250054
perihelion distance (AU)2.2229427
Tisserand w.r.t. Jupiter3.4
ΔV w.r.t. Earth (km/sec)9.4
semimajor axis (AU)2.5405216
mean anomaly (°)152.48512
mean daily motion (°/day)0.24339940
aphelion distance (AU)2.858
period (years)4.05
P-vector [x]0.80227677
P-vector [y]-0.53915405
P-vector [z]-0.25625163
Q-vector [x]0.59544701
Q-vector [y]0.75323649
Q-vector [z]0.27942379
absolute magnitude15.32
phase slope0.15
uncertainty0
referenceMPEC 2024-D06
observations used1852
oppositions21
arc length (days)9782
first opposition used1997
last opposition used2024
residual rms (arc-secs)0.67
perturbers coarse indicatorM-v
perturbers precise indicator003Ek
first observation date used1997-05-04.0
last observation date used2024-02-14.0
computer nameMPCLINUX
JD of orbit computation2456966.744652
perihelion JD uncertainty (days)5.1616E-05
argument of perihelion uncertainty (°)7.3510E-05
ascending node uncertainty (°)7.2470E-05
inclination uncertainty (°)2.7671E-06
eccentricity uncertainty 3.0733E-08
perihelion distance uncertainty (AU)7.9087E-08
Minimum Orbit Intersection Distances (in AU)
for orbit epoch: 2460400.5, reference: E2024-D06
Mercury1.80336
Venus1.49545
Earth1.2107
Mars0.83631
Jupiter2.41707
Saturn6.27357
Uranus15.5989
Neptune27.2868

Observations

1893 total observations over interval: 1997 05 04.16250 – 2024 02 14.335056
These data are available for download (format description).

Date (UT) J2000 RA J2000 Dec Magn Location Ref
1997 05 04.16250 15 39 19.83 -15 13 10.4 18.5   809 – European Southern Observatory, La Silla MPS 13496
1997 05 04.17569 15 39 19.10 -15 13 06.9   809 – European Southern Observatory, La Silla MPS 13496
1997 05 04.18889 15 39 18.37 -15 13 03.7   809 – European Southern Observatory, La Silla MPS 13496
1997 05 04.20833 15 39 17.13 -15 12 58.6 18.7   809 – European Southern Observatory, La Silla MPS 13496
1997 05 04.22153 15 39 16.38 -15 12 57.9   809 – European Southern Observatory, La Silla MPS 13496
1997 05 04.23472 15 39 15.71 -15 12 56.3   809 – European Southern Observatory, La Silla MPS 13496
1997 06 07.04931 15 09 14.20 -13 44 16.1 18.6   809 – European Southern Observatory, La Silla MPC 30226
1997 06 07.06250 15 09 13.54 -13 44 14.7   809 – European Southern Observatory, La Silla MPC 30226
1997 06 07.07569 15 09 13.04 -13 44 13.7   809 – European Southern Observatory, La Silla MPC 30226
1997 06 08.05417 15 08 32.76 -13 42 54.5   809 – European Southern Observatory, La Silla MPC 30226
1997 06 08.06736 15 08 32.22 -13 42 53.0   809 – European Southern Observatory, La Silla MPC 30226
1997 06 08.08056 15 08 31.60 -13 42 52.8   809 – European Southern Observatory, La Silla MPC 30226
1998 09 18.42502 02 17 00.03 +09 09 04.1 18.7 R 699 – Lowell Observatory-LONEOS MPS 53788
1998 09 18.44916 02 16 59.45 +09 08 59.9   699 – Lowell Observatory-LONEOS MPS 53788
1998 09 18.47402 02 16 58.99 +09 08 54.4   699 – Lowell Observatory-LONEOS MPS 53788
1998 09 20.35069 02 16 18.53 +09 02 43.1 18.5   809 – European Southern Observatory, La Silla MPS 2718
1998 09 20.36389 02 16 18.19 +09 02 40.4   809 – European Southern Observatory, La Silla MPS 2718
1998 09 20.37708 02 16 17.87 +09 02 38.4   809 – European Southern Observatory, La Silla MPS 2718
1998 09 21.33958 02 15 54.78 +08 59 13.1   809 – European Southern Observatory, La Silla MPS 2718
1998 09 21.35278 02 15 54.48 +08 59 11.0   809 – European Southern Observatory, La Silla MPS 2718
1998 09 21.36597 02 15 54.09 +08 59 07.9   809 – European Southern Observatory, La Silla MPS 2718
1998 10 11.32553 02 02 44.68 +07 28 09.7 17.9 R 699 – Lowell Observatory-LONEOS MPS 84797
1998 10 11.34540 02 02 43.66 +07 28 05.1   699 – Lowell Observatory-LONEOS MPS 84797
1998 10 11.36528 02 02 42.58 +07 27 58.4   699 – Lowell Observatory-LONEOS MPS 84797
1998 10 28.26680 01 47 31.20 +06 04 01.6 19.1   704 – Lincoln Laboratory ETS, New Mexico MPS 3120
1998 10 28.28248 01 47 30.30 +06 03 57.5 18.8   704 – Lincoln Laboratory ETS, New Mexico MPS 3120
1998 10 28.29818 01 47 29.40 +06 03 51.7 18.8   704 – Lincoln Laboratory ETS, New Mexico MPS 3120
1998 10 29.19992 01 46 41.81 +05 59 52.8 18.9   704 – Lincoln Laboratory ETS, New Mexico MPS 3120
1998 10 29.21992 01 46 40.70 +05 59 48.5 18.3   704 – Lincoln Laboratory ETS, New Mexico MPS 3120
1998 10 29.23999 01 46 39.65 +05 59 44.2 18.3   704 – Lincoln Laboratory ETS, New Mexico MPS 3120
1998 10 29.25998 01 46 38.50 +05 59 37.2 18.8   704 – Lincoln Laboratory ETS, New Mexico MPS 3120
1998 10 29.28001 01 46 37.43 +05 59 31.4 18.9   704 – Lincoln Laboratory ETS, New Mexico MPS 3120
1998 11 14.17775 01 34 37.69 +05 07 08.1 18.3 R 699 – Lowell Observatory-LONEOS MPS 58484
1998 11 14.20259 01 34 36.69 +05 07 05.3   699 – Lowell Observatory-LONEOS MPS 58484
1998 11 14.22744 01 34 35.78 +05 07 02.8   699 – Lowell Observatory-LONEOS MPS 58484
2000 01 03.45815 09 26 48.16 +15 41 24.4 19.2 V 691 – Steward Observatory, Kitt Peak-Spacewatch MPS 14126
2000 01 03.48403 09 26 47.32 +15 41 29.7 19.0 V 691 – Steward Observatory, Kitt Peak-Spacewatch MPS 14126
2000 01 03.50701 09 26 46.57 +15 41 34.4 19.4 V 691 – Steward Observatory, Kitt Peak-Spacewatch MPS 14126
2000 01 12.43285 09 21 11.77 +16 16 35.1 18.7 V 691 – Steward Observatory, Kitt Peak-Spacewatch MPS 14126
2000 01 12.45425 09 21 10.80 +16 16 40.5 19.2 V 691 – Steward Observatory, Kitt Peak-Spacewatch MPS 14126
2000 01 12.47666 09 21 09.79 +16 16 46.3 19.7 V 691 – Steward Observatory, Kitt Peak-Spacewatch MPS 14126
2000 01 30.28273 09 05 48.31 +17 42 24.6 19.2 R 703 – Catalina Sky Survey MPS 14126
2000 01 30.29448 09 05 47.61 +17 42 27.6 18.7 R 703 – Catalina Sky Survey MPS 14126
2000 01 30.30621 09 05 46.92 +17 42 31.1 18.9 R 703 – Catalina Sky Survey MPS 14126
2000 01 30.31792 09 05 46.20 +17 42 36.0 18.5 R 703 – Catalina Sky Survey MPS 14126
2000 02 03.22543 09 02 00.69 +18 01 57.4 19.1   704 – Lincoln Laboratory ETS, New Mexico MPS 10399
2000 02 03.23590 09 02 00.11 +18 02 01.6 18.6   704 – Lincoln Laboratory ETS, New Mexico MPS 10399
2000 02 03.24008 09 01 59.86 +18 02 02.1 18.6   704 – Lincoln Laboratory ETS, New Mexico MPS 10399
2000 02 03.25058 09 01 59.29 +18 02 06.0 18.4   704 – Lincoln Laboratory ETS, New Mexico MPS 10399
2000 02 03.25473 09 01 59.01 +18 02 07.8 18.5   704 – Lincoln Laboratory ETS, New Mexico MPS 10399
2000 02 03.26521 09 01 58.35 +18 02 11.0 18.7   704 – Lincoln Laboratory ETS, New Mexico MPS 10399
2000 02 03.26935 09 01 58.15 +18 02 11.4 18.5   704 – Lincoln Laboratory ETS, New Mexico MPS 10399
2000 02 03.27984 09 01 57.52 +18 02 15.1 18.4   704 – Lincoln Laboratory ETS, New Mexico MPS 10399
2000 02 03.28397 09 01 57.25 +18 02 16.2 18.9   704 – Lincoln Laboratory ETS, New Mexico MPS 10399
2000 02 08.31317 08 57 07.11 +18 26 28.4 19.0   704 – Lincoln Laboratory ETS, New Mexico MPS 10399
2000 02 08.32998 08 57 06.15 +18 26 31.9 19.6   704 – Lincoln Laboratory ETS, New Mexico MPS 10399
2000 02 08.34691 08 57 05.13 +18 26 36.7 19.3   704 – Lincoln Laboratory ETS, New Mexico MPS 10399
2000 02 08.38071 08 57 03.15 +18 26 46.2 19.4   704 – Lincoln Laboratory ETS, New Mexico MPS 10399
2000 02 11.25723 08 54 20.76 +18 40 00.2 19.7   704 – Lincoln Laboratory ETS, New Mexico MPS 10399
2000 02 11.27185 08 54 19.99 +18 40 03.5 19.2   704 – Lincoln Laboratory ETS, New Mexico MPS 10399
2000 02 11.28637 08 54 19.19 +18 40 07.5 19.5   704 – Lincoln Laboratory ETS, New Mexico MPS 10399
2001 04 25.37411 15 17 14.03 -13 45 22.1 20.2 R 919 – Desert Beaver Observatory MPS 29904
2001 04 25.42834 15 17 11.22 -13 45 10.2 19.8 R 919 – Desert Beaver Observatory MPS 29904
2001 04 25.44094 15 17 10.61 -13 45 07.5 20.1 R 919 – Desert Beaver Observatory MPS 29904
2001 04 26.30870 15 16 27.93 -13 41 59.7 18.1 R 699 – Lowell Observatory-LONEOS MPS 29904
2001 04 26.32743 15 16 26.97 -13 41 55.5   699 – Lowell Observatory-LONEOS MPS 29904
2001 04 26.34617 15 16 25.99 -13 41 51.7   699 – Lowell Observatory-LONEOS MPS 29904
2001 04 26.36496 15 16 25.00 -13 41 46.9   699 – Lowell Observatory-LONEOS MPS 29904
2001 04 27.34308 15 15 35.71 -13 38 13.8 20.2 R 919 – Desert Beaver Observatory MPS 29904
2001 04 27.37826 15 15 33.84 -13 38 06.9 19.3 R 919 – Desert Beaver Observatory MPS 29904
2001 04 27.40630 15 15 32.35 -13 37 59.4 20.6 R 919 – Desert Beaver Observatory MPS 29904
2001 04 30.31587 15 13 01.11 -13 27 17.9 19.5 R 919 – Desert Beaver Observatory MPS 29904
2001 04 30.34710 15 12 59.36 -13 27 12.0 20.3 R 919 – Desert Beaver Observatory MPS 29904
2001 05 01.30013 15 12 08.53 -13 23 38.5 20.2 V 919 – Desert Beaver Observatory MPS 29904
2001 05 01.30817 15 12 08.11 -13 23 37.8 19.5 V 919 – Desert Beaver Observatory MPS 29904
2001 05 01.32674 15 12 07.09 -13 23 33.8 19.9 V 919 – Desert Beaver Observatory MPS 29904
2001 05 01.34678 15 12 06.03 -13 23 28.4 19.6 V 919 – Desert Beaver Observatory MPS 29904
2001 05 01.35202 15 12 05.65 -13 23 28.5 19.4 V 919 – Desert Beaver Observatory MPS 29904
2001 05 15.23665 14 59 11.71 -12 33 18.1 18.5 R 699 – Lowell Observatory-LONEOS MPS 30729
2001 05 15.26470 14 59 10.11 -12 33 13.1   699 – Lowell Observatory-LONEOS MPS 30729
2001 05 15.29284 14 59 08.47 -12 33 08.0   699 – Lowell Observatory-LONEOS MPS 30729
2001 05 15.32109 14 59 06.83 -12 33 01.9   699 – Lowell Observatory-LONEOS MPS 30729
2001 05 17.28829 14 57 18.26 -12 26 31.1 18.5 V 691 – Steward Observatory, Kitt Peak-Spacewatch MPS 30729
2001 05 17.30970 14 57 17.04 -12 26 26.9 18.8 V 691 – Steward Observatory, Kitt Peak-Spacewatch MPS 30729
2001 05 17.33097 14 57 15.84 -12 26 22.8 19.5 V 691 – Steward Observatory, Kitt Peak-Spacewatch MPS 30729
